| time (UTC) | temp F | wind direction | speed MPH | gust MPH | rain 1hr in | rain 24hr in | rain mn in | humidity % | barometer mb |
| 20260901221514 | 60 | 89 | 0.0 | 3.0 | 0.00 | 0.88 | 0.88 | 91 | 1018.1 |
| 20260901220011 | 61 | 88 | 0.0 | 3.0 | 0.00 | 0.88 | 0.88 | 91 | 1018.0 |
| 20260901214510 | 61 | 97 | 0.0 | 2.0 | 0.02 | 0.88 | 0.88 | 91 | 1017.8 |
| 20260901213027 | 61 | 98 | 0.0 | 0.0 | 0.05 | 0.88 | 0.88 | 91 | 1017.6 |
| 20260901211508 | 61 | 100 | 0.0 | 0.0 | 0.05 | 0.88 | 0.88 | 91 | 1017.6 |
| 20260901210017 | 61 | 101 | 0.0 | 0.0 | 0.05 | 0.88 | 0.88 | 91 | 1017.5 |
| 20260901204508 | 61 | 101 | 0.0 | 0.0 | 0.04 | 0.86 | 0.86 | 91 | 1017.5 |
| 20260901203008 | 61 | 101 | 0.0 | 0.0 | 0.01 | 0.83 | 0.83 | 91 | 1017.5 |
| 20260901201506 | 61 | 101 | 0.0 | 0.0 | 0.02 | 0.83 | 0.83 | 91 | 1017.4 |
| 20260901200003 | 61 | 83 | 0.0 | 4.0 | 0.05 | 0.83 | 0.83 | 91 | 1017.3 |
| 20260901194502 | 61 | 78 | 0.0 | 4.0 | 0.05 | 0.82 | 0.82 | 91 | 1017.3 |
| 20260901193000 | 61 | 143 | 0.0 | 0.0 | 0.06 | 0.82 | 0.82 | 91 | 1017.2 |
| 20260901191615 | 61 | 145 | 0.0 | 1.0 | 0.05 | 0.81 | 0.81 | 91 | 1017.3 |
| 20260901191500 | 61 | 145 | 0.0 | 1.0 | 0.04 | 0.80 | 0.80 | 91 | 1017.3 |
| 20260901190034 | 61 | 148 | 0.0 | 0.0 | 0.02 | 0.78 | 0.78 | 91 | 1017.1 |
| 20260901184539 | 61 | 59 | 0.0 | 1.0 | 0.01 | 0.77 | 0.77 | 91 | 1017.1 |
| 20260901183026 | 61 | 38 | 0.0 | 4.0 | 0.01 | 0.76 | 0.76 | 91 | 1017.1 |
| 20260901181525 | 61 | 89 | 0.0 | 3.0 | 0.07 | 0.76 | 0.76 | 91 | 1017.2 |
| 20260901180023 | 61 | 89 | 0.0 | 0.0 | 0.15 | 0.76 | 0.76 | 91 | 1016.9 |
| 20260901174523 | 61 | 93 | 0.0 | 4.0 | 0.16 | 0.76 | 0.76 | 91 | 1016.8 |
| 20260901173053 | 61 | 124 | 0.0 | 6.0 | 0.16 | 0.75 | 0.75 | 91 | 1016.3 |
| 20260901171559 | 62 | 94 | 0.0 | 4.0 | 0.10 | 0.69 | 0.69 | 91 | 1016.7 |
| 20260901164540 | 63 | 77 | 0.0 | 8.0 | 0.02 | 0.60 | 0.60 | 91 | 1016.4 |
| 20260901163038 | 64 | 80 | 0.0 | 7.0 | 0.02 | 0.59 | 0.59 | 91 | 1016.4 |
| 20260901161539 | 64 | 95 | 0.0 | 6.0 | 0.04 | 0.59 | 0.59 | 91 | 1016.3 |
| 20260901160106 | 65 | 88 | 0.0 | 4.0 | 0.06 | 0.59 | 0.59 | 91 | 1016.5 |
| 20260901154512 | 65 | 74 | 0.0 | 6.0 | 0.07 | 0.57 | 0.57 | 91 | 1016.5 |
| 20260901153103 | 65 | 37 | 0.0 | 9.0 | 0.08 | 0.56 | 0.56 | 91 | 1016.6 |
| 20260901151535 | 65 | 101 | 0.0 | 4.0 | 0.11 | 0.55 | 0.55 | 91 | 1016.8 |
| 20260901150030 | 66 | 117 | 0.0 | 0.0 | 0.11 | 0.52 | 0.52 | 91 | 1016.8 |
| 20260901144529 | 66 | 119 | 0.0 | 3.0 | 0.15 | 0.51 | 0.51 | 91 | 1016.9 |
| 20260901143029 | 65 | 123 | 0.0 | 3.0 | 0.20 | 0.49 | 0.49 | 92 | 1016.9 |
| 20260901141537 | 65 | 128 | 0.0 | 0.0 | 0.25 | 0.44 | 0.44 | 91 | 1017.0 |
| 20260901140100 | 65 | 132 | 0.0 | 0.0 | 0.27 | 0.41 | 0.41 | 91 | 1017.0 |
| 20260901134613 | 65 | 132 | 0.0 | 0.0 | 0.24 | 0.36 | 0.36 | 91 | 1017.2 |
| 20260901133054 | 65 | 132 | 0.0 | 0.0 | 0.18 | 0.28 | 0.28 | 91 | 1017.1 |
| 20260901131559 | 65 | 132 | 0.0 | 2.0 | 0.11 | 0.19 | 0.19 | 91 | 1017.7 |
| 20260901130052 | 65 | 132 | 0.0 | 0.0 | 0.11 | 0.14 | 0.14 | 91 | 1016.9 |
| 20260901124550 | 65 | 132 | 0.0 | 0.0 | 0.10 | 0.11 | 0.11 | 91 | 1016.9 |
| 20260901123049 | 65 | 132 | 0.0 | 0.0 | 0.10 | 0.11 | 0.11 | 91 | 1016.8 |
| 20260901121548 | 65 | 132 | 0.0 | 1.0 | 0.07 | 0.08 | 0.08 | 91 | 1017.0 |
| 20260901120047 | 65 | 132 | 0.0 | 0.0 | 0.02 | 0.03 | 0.03 | 91 | 1017.1 |
| 20260901114546 | 65 | 132 | 0.0 | 0.0 | 0.01 | 0.01 | 0.01 | 90 | 1017.1 |
| 20260901113045 | 65 | 132 | 0.0 | 0.0 | 0.01 | 0.01 | 0.01 | 91 | 1017.0 |
| 20260901111542 | 65 | 132 | 0.0 | 0.0 | 0.01 | 0.02 | 0.01 | 90 | 1016.9 |
| 20260901110041 | 65 | 132 | 0.0 | 0.0 | 0.01 | 0.02 | 0.01 | 90 | 1016.7 |
| 20260901104540 | 65 | 132 | 0.0 | 0.0 | 0.00 | 0.01 | 0.00 | 90 | 1016.7 |
| 20260901103047 | 65 | 132 | 0.0 | 0.0 | 0.00 | 0.01 | 0.00 | 90 | 1016.7 |
| 20260901101537 | 65 | 132 | 0.0 | 0.0 | 0.00 | 0.01 | 0.00 | 90 | 1016.5 |
| 20260901100036 | 65 | 132 | 0.0 | 0.0 | 0.00 | 0.01 | 0.00 | 90 | 1016.5 |
| 20260901093035 | 65 | 132 | 0.0 | 0.0 | 0.00 | 0.01 | 0.00 | 89 | 1016.7 |
| 20260901091532 | 65 | 132 | 0.0 | 0.0 | 0.00 | 0.01 | 0.00 | 89 | 1016.8 |
| 20260901090031 | 65 | 132 | 0.0 | 0.0 | 0.00 | 0.01 | 0.00 | 89 | 1016.7 |
| 20260901084531 | 65 | 132 | 0.0 | 0.0 | 0.00 | 0.01 | 0.00 | 89 | 1016.6 |
| 20260901083030 | 65 | 132 | 0.0 | 0.0 | 0.00 | 0.01 | 0.00 | 89 | 1016.5 |
| 20260901081556 | 65 | 132 | 0.0 | 0.0 | 0.00 | 0.01 | 0.00 | 89 | 1016.9 |
| 20260901080054 | 65 | 132 | 0.0 | 0.0 | 0.00 | 0.01 | 0.00 | 88 | 1017.2 |
| 20260901074551 | 66 | 132 | 0.0 | 0.0 | 0.00 | 0.01 | 0.00 | 88 | 1017.4 |
| 20260901073050 | 66 | 132 | 0.0 | 0.0 | 0.00 | 0.01 | 0.00 | 87 | 1017.3 |
| 20260901071558 | 66 | 132 | 0.0 | 0.0 | 0.00 | 0.01 | 0.00 | 87 | 1017.4 |
| 20260901070047 | 65 | 132 | 0.0 | 0.0 | 0.00 | 0.01 | 0.00 | 87 | 1017.4 |
| 20260901064545 | 65 | 132 | 0.0 | 0.0 | 0.00 | 0.01 | 0.00 | 87 | 1017.4 |
| 20260901063043 | 65 | 132 | 0.0 | 0.0 | 0.00 | 0.01 | 0.00 | 86 | 1017.4 |
| 20260901061541 | 66 | 132 | 0.0 | 0.0 | 0.00 | 0.01 | 0.00 | 86 | 1017.6 |
| 20260901060041 | 65 | 132 | 0.0 | 0.0 | 0.00 | 0.01 | 0.00 | 86 | 1017.9 |
| 20260901054538 | 65 | 132 | 0.0 | 0.0 | 0.00 | 0.01 | 0.00 | 86 | 1017.7 |
| 20260901053043 | 65 | 132 | 0.0 | 0.0 | 0.00 | 0.01 | 0.00 | 85 | 1017.7 |
| 20260901051535 | 65 | 132 | 0.0 | 0.0 | 0.00 | 0.01 | 0.00 | 85 | 1017.9 |
| 20260901050035 | 65 | 132 | 0.0 | 0.0 | 0.00 | 0.01 | 0.00 | 85 | 1018.0 |
| 20260901044506 | 65 | 132 | 0.0 | 0.0 | 0.00 | 0.01 | 0.00 | 85 | 1018.1 |
| 20260901043031 | 65 | 132 | 0.0 | 0.0 | 0.00 | 0.01 | 0.00 | 84 | 1018.2 |
| 20260901041530 | 65 | 132 | 0.0 | 0.0 | 0.00 | 0.01 | 0.00 | 84 | 1018.1 |
| 20260901040029 | 65 | 132 | 0.0 | 0.0 | 0.00 | 0.01 | 0.00 | 84 | 1018.2 |
| 20260901034532 | 65 | 132 | 0.0 | 0.0 | 0.00 | 0.01 | 0.00 | 84 | 1018.2 |
| 20260901031525 | 65 | 132 | 0.0 | 0.0 | 0.00 | 0.01 | 0.00 | 83 | 1018.4 |
| 20260901030027 | 65 | 132 | 0.0 | 0.0 | 0.00 | 0.01 | 0.00 | 82 | 1018.3 |
| 20260901024505 | 66 | 132 | 0.0 | 0.0 | 0.00 | 0.01 | 0.00 | 81 | 1018.2 |
| 20260901023043 | 66 | 132 | 0.0 | 0.0 | 0.00 | 0.01 | 0.00 | 80 | 1018.2 |
| 20260901021538 | 66 | 132 | 0.0 | 0.0 | 0.00 | 0.10 | 0.00 | 79 | 1018.2 |
| 20260901020036 | 67 | 132 | 0.0 | 0.0 | 0.00 | 0.10 | 0.00 | 78 | 1018.2 |
| 20260901014535 | 67 | 132 | 0.0 | 0.0 | 0.00 | 0.10 | 0.00 | 78 | 1018.3 |
| 20260901013033 | 67 | 132 | 0.0 | 0.0 | 0.00 | 0.10 | 0.00 | 77 | 1018.5 |
| 20260901011528 | 68 | 132 | 0.0 | 0.0 | 0.00 | 0.10 | 0.00 | 77 | 1018.4 |
| 20260901010027 | 68 | 132 | 0.0 | 0.0 | 0.00 | 0.10 | 0.00 | 77 | 1018.4 |
| 20260901004525 | 68 | 132 | 0.0 | 0.0 | 0.00 | 0.10 | 0.00 | 78 | 1018.4 |
| 20260901003024 | 69 | 133 | 0.0 | 0.0 | 0.00 | 0.10 | 0.00 | 78 | 1018.3 |
| 20260901001553 | 69 | 133 | 0.0 | 0.0 | 0.00 | 0.10 | 0.00 | 79 | 1018.2 |
| 20260901000057 | 70 | 176 | 0.0 | 3.0 | 0.00 | 0.10 | 0.00 | 79 | 1018.1 |
| 20260831234546 | 70 | 176 | 0.0 | 0.0 | 0.00 | 0.10 | 0.00 | 79 | 1018.2 |
| 20260831233042 | 71 | 177 | 0.0 | 0.0 | 0.00 | 0.10 | 0.00 | 78 | 1018.2 |
| 20260831231546 | 71 | 178 | 0.0 | 0.0 | 0.00 | 0.10 | 0.00 | 77 | 1018.2 |
| 20260831230041 | 72 | 195 | 0.0 | 0.0 | 0.00 | 0.10 | 0.00 | 75 | 1018.3 |
| 20260831224533 | 73 | 199 | 0.0 | 0.0 | 0.00 | 0.10 | 0.00 | 69 | 1018.2 |
| 20260831223032 | 73 | 199 | 0.0 | 0.0 | 0.00 | 0.10 | 0.00 | 67 | 1018.2 |